PROFILE

 METAR AND TAF INFORMATION
ADDS - METARS form results

(0208 UTC 20 February 2020)
http://aviationweather.gov/metar/data/
 
PAJN 200153Z 12004KT 6SM -RA BR FEW011 BKN026 OVC034 03/01 A2997 RMK AO2 RAB14 SLP148 P0000 T00330011
PAJN 192348Z 2000/2024 11015G22KT 6SM -SHRASN BR FEW010 BKN025 OVC050 FM201700 11025G40KT 4SM RA BR BKN015 OVC025 WS020/16035KT 

 AIRPORT MAP

 RUNWAY INFORMATION
Runway 08 Runway length 8457 ft Runway width 150 ft
Runway elevation 21 ft Runway displaced threshold 0 ft Runway heading 105
Runway 26 Runway length 8457 ft Runway width 150 ft
Runway elevation 20 ft Runway displaced threshold 0 ft Runway heading 285
Runway 08W Runway length 4900 ft Runway width 450 ft
Runway elevation 0 ft Runway displaced threshold 0 ft Runway heading 0
Runway 26W Runway length 4900 ft Runway width 450 ft
Runway elevation 0 ft Runway displaced threshold 0 ft Runway heading 0

 AIRPORT FREQUENCIES
Type ATIS Name ATIS Frequency 135.2 MHZ
Type AWOS Name TWEB Frequency 114 MHZ
Type CNTR Name ANCHORAGE Frequency 133.9 MHZ
Type CTAF Name CTAF Frequency 118.7 MHZ
Type FSS Name RDO Frequency 122.2 MHZ
Type GND Name GND Frequency 121.9 MHZ
Type MISC Name RDO Frequency 122.15 MHZ
Type OPS Name NAT GD OPS Frequency 124.65 MHZ
Type TWR Name TWR Frequency 118.7 MHZ
Type UNIC Name UNICOM Frequency 122.95 MHZ

 AIRPORT NEAR NAVIGATION AIDS
Type NDB Name Coghlan Island Frequency 212 KHZ